Lid_Strength_Index
7 10 12 10 10 11 13 14 15 13 12 14 13 13 12 10 11 11 10 10 9 8 6 4 2 1 1 1 1 1 1 1 1 1 1 1 2 1 0 -0 -1 -1 -1 -1
10 12 8 8 9 11 12 14 14 12 13 13 13 14 12 12 11 11 10 9 9 9 7 6 5 3 2 2 1 1 1 1 1 1 1 1 1 0 0 0 -0 -1 -1 -1
11 9 7 8 9 11 11 13 14 14 13 12 13 15 14 12 12 11 11 10 9 8 8 7 6 5 3 2 2 1 1 1 1 0 0 1 0 1 1 1 0 -0 -1 -1
9 7 9 9 11 10 13 10 11 13 13 18 14 19 14 13 13 12 12 11 10 9 8 7 7 6 5 4 2 1 1 1 1 0 1 2 2 3 1 1 0 0 -0 -0
11 10 10 11 10 8 11 9 11 11 14 13 15 17 15 13 15 13 12 11 10 10 10 9 9 8 7 7 5 5 1 1 1 1 1 1 2 1 1 1 1 0 0 0
9 7 8 8 8 8 8 10 11 11 12 17 15 16 16 14 14 13 13 12 12 11 10 9 8 8 7 6 7 6 5 2 1 1 1 1 2 2 2 1 2 1 1 1
10 10 8 7 10 8 9 12 16 17 17 19 13 15 15 12 13 12 12 12 11 10 11 11 10 10 9 8 6 6 5 3 4 4 6 5 4 4 3 2 2 2 4 4
14 16 10 8 9 12 11 11 15 19 18 17 14 17 14 11 11 11 11 10 11 11 11 12 12 12 12 11 9 8 7 8 8 8 9 9 9 9 10 9 8 8 7 7
14 13 8 8 7 8 11 14 9 14 16 16 14 13 11 10 10 11 10 11 11 11 12 12 13 13 13 13 13 11 11 10 10 11 11 11 11 10 10 10 10 9 9 9
11 15 9 8 7 7 9 8 14 14 19 19 16 15 14 12 11 10 10 11 11 11 12 13 13 13 13 13 13 13 13 13 13 12 12 12 12 11 10 10 10 10 9 9
9 13 12 9 11 12 11 13 12 11 13 17 18 15 10 10 9 10 11 11 11 11 12 13 13 13 13 13 13 13 13 13 13 13 13 13 12 12 11 11 12 13 12 11
8 11 15 13 10 9 9 11 12 16 17 14 14 15 10 9 9 9 11 10 11 12 12 12 13 13 14 14 14 14 14 14 13 13 14 14 13 13 13 12 12 11 11 10
8 13 16 14 12 11 12 10 10 11 12 16 17 15 9 9 9 9 10 11 11 12 13 13 13 14 14 15 15 15 14 14 14 14 14 14 14 14 14 14 13 12 12 11
8 11 13 15 13 13 14 12 11 13 17 15 14 12 11 10 9 10 10 10 11 12 13 13 14 14 14 15 15 15 15 14 14 14 15 15 14 14 14 14 14 13 12 12
10 14 12 12 12 11 12 13 12 14 14 16 13 13 10 9 9 9 10 11 12 13 13 13 14 15 15 14 14 14 15 15 14 15 15 16 15 14 14 14 14 14 13 13
8 13 12 14 12 12 13 12 12 12 12 13 13 13 8 8 8 10 10 11 12 13 13 14 15 15 15 15 16 16 16 16 15 16 16 16 16 16 16 15 15 14 14 14
11 12 13 15 12 13 15 13 11 11 11 12 15 12 9 10 10 10 10 10 11 12 13 14 15 15 16 16 16 16 16 16 16 17 17 17 17 17 17 17 16 16 16 16
11 12 12 14 14 19 12 10 10 11 10 9 10 9 8 9 8 8 8 9 11 11 13 14 15 16 16 16 16 16 16 17 17 18 18 18 18 18 18 18 18 17 17 17
8 11 14 16 15 13 12 11 12 12 12 9 9 9 9 11 11 10 10 9 11 12 13 14 15 15 16 16 16 17 17 18 18 19 19 18 18 18 18 18 19 18 18 17
9 9 12 14 16 18 12 11 9 8 13 9 8 8 10 12 13 10 12 12 13 13 15 16 16 16 17 17 17 18 18 19 20 20 20 19 19 19 19 19 19 18 18 18
13 12 14 14 15 13 9 10 9 14 13 10 9 8 10 12 12 13 14 14 15 15 16 16 17 18 18 18 18 19 19 20 20 20 20 20 19 20 19 19 19 19 18 18
13 14 14 13 16 17 9 10 12 10 10 10 9 8 8 12 13 14 14 15 15 16 16 17 18 19 19 18 18 20 20 21 20 20 21 21 20 19 19 19 19 19 18 19
13 10 12 11 12 7 8 8 7 9 10 9 9 9 8 12 13 13 14 14 15 15 16 16 17 19 19 19 18 19 20 20 20 20 21 21 20 19 19 19 19 19 18 18
9 9 10 10 8 8 7 6 8 8 9 9 9 9 9 10 12 13 13 14 15 16 17 17 19 19 20 20 19 19 20 20 21 21 21 21 20 20 20 19 18 18 18 18
9 10 10 10 8 8 7 7 7 7 9 10 10 10 9 9 12 13 14 15 15 16 17 18 19 19 20 20 21 21 21 20 20 20 20 20 19 19 19 19 18 18 18 17
9 9 11 11 7 7 6 8 9 9 10 10 10 12 12 11 11 12 14 14 15 17 17 18 19 19 20 21 21 22 21 20 20 20 20 19 19 19 19 19 19 19 18 18